Saint Simons Island, GA

4:00 AM EST on December 13, 2019 (GMT -0500)
McKinnon

Weather History for KSSI - October, 2019

Change the Weather History Date:

Friday, October 11, 2019

  Actual Average Record
Temperature  
Mean Temperature 73 °F 72 °F  
Max Temperature 81 °F 79 °F 92 °F (2018)
Min Temperature 65 °F 64 °F 47 °F (1971)
Degree Days  
Heating Degree Days 0 1  
Month to date heating degree days 0 1  
Since 1 July heating degree days 0 1  
Cooling Degree Days 8 7  
Month to date cooling degree days 157 93  
Year to date cooling degree days 3144 2464  
Growing Degree Days 22 (Base 50)    
Moisture  
Dew Point 62 °F    
Average Humidity 71    
Maximum Humidity 87    
Minimum Humidity 54    
Precipitation  
Precipitation 0.00 in 0.17 in 3.98 in (1994)
Month to date precipitation 0.41 2.00  
Year to date precipitation 27.51 37.87  
Snow  
Snow 0.00 in - 0.00 in ()
Month to date snowfall 0.0  
Since 1 July snowfall 0.0  
Since 1 September snowfall 0.0  
Snow Depth 0.00 in    
Sea Level Pressure  
Sea Level Pressure 30.07 in    
Wind  
Wind Speed 9 mph (NE)    
Max Wind Speed 16 mph    
Max Gust Speed 22 mph    
Visibility 10 miles    
Events      
T = Trace of Precipitation, MM = Missing Value Source: NWS Daily Summary

Daily Weather History Graph

Daily Weather History Graph

Search for Another Location

Airport or City:

Astronomy

Oct. 11, 2019 Rise Set
Actual Time 7:25 AM EDT 6:58 PM EDT
Civil Twilight 7:01 AM EDT 7:22 PM EDT
Nautical Twilight 6:33 AM EDT 7:51 PM EDT
Astronomical Twilight 6:05 AM EDT 8:19 PM EDT
Moon 6:15 PM EDT (10/11) 5:18 AM EDT (10/11)
Length of Visible Light 12h 21m
Length of Day
11h 33m
Waxing Gibbous, 96% of the Moon is Illuminated
Oct 11
Waxing Gibbous
Oct 13
Full
Oct 21
Last Quarter
Oct 27
New
Nov 4
First Quarter

Hourly Weather History & Observations

Time (EDT) Temp. Heat Index Dew Point Humidity Pressure Visibility Wind Dir Wind Speed Gust Speed Precip Events Conditions
12:53 AM 73.0 °F - 60.1 °F 64% 30.09 in 10.0 mi ENE 11.5 mph - N/A   Partly Cloudy
1:53 AM 73.0 °F - 59.0 °F 61% 30.08 in 10.0 mi ENE 11.5 mph - N/A   Partly Cloudy
2:53 AM 73.0 °F - 59.0 °F 61% 30.07 in 10.0 mi ENE 10.4 mph - N/A   Partly Cloudy
3:53 AM 72.0 °F - 59.0 °F 64% 30.06 in 10.0 mi NE 10.4 mph - N/A   Partly Cloudy
4:53 AM 70.0 °F - 59.0 °F 68% 30.06 in 10.0 mi NNE 6.9 mph - N/A   Clear
5:53 AM 68.0 °F - 59.0 °F 73% 30.06 in 10.0 mi North 4.6 mph - N/A   Clear
6:53 AM 64.9 °F - 61.0 °F 87% 30.07 in 10.0 mi NNW 4.6 mph - N/A   Clear
7:53 AM 66.9 °F - 63.0 °F 87% 30.08 in 10.0 mi North 6.9 mph - N/A   Clear
8:53 AM 71.1 °F - 64.9 °F 81% 30.10 in 10.0 mi North 8.1 mph - N/A   Clear
9:53 AM 75.0 °F - 64.0 °F 69% 30.11 in 10.0 mi North 11.5 mph - N/A   Clear
10:53 AM 77.0 °F - 64.0 °F 64% 30.12 in 10.0 mi North 12.7 mph - N/A   Clear
11:53 AM 77.0 °F - 63.0 °F 62% 30.12 in 10.0 mi NE 11.5 mph - N/A   Partly Cloudy
12:39 PM 79.0 °F - 63.0 °F 58% 30.10 in 10.0 mi ENE 13.8 mph - N/A   Mostly Cloudy
12:53 PM 80.1 °F 81.7 °F 64.0 °F 58% 30.10 in 10.0 mi ENE 12.7 mph - N/A   Mostly Cloudy
1:09 PM 80.1 °F 81.2 °F 62.1 °F 54% 30.09 in 10.0 mi ENE 13.8 mph - N/A   Scattered Clouds
1:53 PM 80.1 °F 81.7 °F 64.0 °F 58% 30.08 in 10.0 mi East 13.8 mph 20.7 mph N/A   Partly Cloudy
2:53 PM 80.1 °F 81.7 °F 64.0 °F 58% 30.06 in 10.0 mi East 13.8 mph - N/A   Scattered Clouds
3:53 PM 80.1 °F 81.5 °F 63.0 °F 56% 30.06 in 10.0 mi ENE 10.4 mph 18.4 mph N/A   Scattered Clouds
4:53 PM 78.1 °F - 63.0 °F 60% 30.05 in 10.0 mi ENE 11.5 mph - N/A   Scattered Clouds
5:53 PM 77.0 °F - 63.0 °F 62% 30.04 in 10.0 mi NE 11.5 mph - N/A   Partly Cloudy
6:53 PM 75.9 °F - 64.0 °F 67% 30.05 in 10.0 mi NE 8.1 mph - N/A   Overcast
7:19 PM 75.0 °F - 64.0 °F 69% 30.04 in 10.0 mi NE 11.5 mph - N/A   Overcast
7:42 PM 75.0 °F - 63.0 °F 66% 30.04 in 10.0 mi NE 9.2 mph - N/A   Overcast
7:53 PM 75.0 °F - 64.0 °F 69% 30.05 in 10.0 mi NE 11.5 mph - N/A   Overcast
8:53 PM 73.9 °F - 63.0 °F 68% 30.07 in 10.0 mi ENE 10.4 mph - N/A   Clear
9:53 PM 73.9 °F - 63.0 °F 68% 30.08 in 10.0 mi East 6.9 mph - N/A   Clear
10:53 PM 73.0 °F - 63.0 °F 71% 30.08 in 10.0 mi ENE 5.8 mph - N/A   Scattered Clouds
11:53 PM 73.0 °F - 61.0 °F 66% 30.08 in 10.0 mi East 6.9 mph - N/A   Clear